Weather History for Point Mugu, CA

Change the Weather History Date:

Friday, November 9, 2012

  Actual Average Record
Temperature  
Mean Temperature 59 °F -  
Max Temperature 64 °F 66 °F 95 °F (1996)
Min Temperature 54 °F 47 °F 44 °F (1998)
Degree Days  
Heating Degree Days 6    
Growing Degree Days 9 (Base 50)    
Moisture  
Dew Point 46 °F    
Average Humidity 64    
Maximum Humidity 77    
Minimum Humidity 52    
Precipitation  
Precipitation 0.00 in - - ()
Sea Level Pressure  
Sea Level Pressure 29.91 in    
Wind  
Wind Speed 15 mph (WNW)    
Max Wind Speed 24 mph    
Max Gust Speed 36 mph    
Visibility 7 miles    
Events      
Averages and records for this station are not official NWS values.
T = Trace of Precipitation, MM = Missing Value Source: NWS Daily Summary

Daily Weather History Graph

Daily Weather History Graph

Search for Another Location

Airport:

Trip Planner

Search our weather history database for the weather conditions in past years. The results will help you decide how hot, cold, wet, or windy it might be!

Date:

Astronomy

Nov. 09, 2012 Rise Set
Actual Time 6:24 AM PST 4:56 PM PST
Civil Twilight 5:57 AM PST 5:22 PM PST
Nautical Twilight 5:27 AM PST 5:52 PM PST
Astronomical Twilight 4:58 AM PST 6:22 PM PST
Moon 1:40 AM PST (11/9) 2:01 PM PST (11/9)
Length of Visible Light 11h 24m
Length of Day
10h 32m
Waning Crescent, 22% of the Moon is Illuminated
Nov 9
Waning Crescent
Nov 13
New
Nov 20
First Quarter
Nov 28
Full
Dec 6
Last Quarter

Hourly Weather History & Observations

Time (PST) Temp. Dew Point Humidity Pressure Visibility Wind Dir Wind Speed Gust Speed Precip Events Conditions
12:54 AM 57.0 °F 48.0 °F 72% 29.90 in 7.0 mi West 16.1 mph 21.9 mph N/A   Clear
1:54 AM 55.9 °F 48.9 °F 77% 29.89 in 7.0 mi West 16.1 mph 26.5 mph N/A   Clear
2:54 AM 57.0 °F 48.0 °F 72% 29.88 in 7.0 mi West 11.5 mph - N/A   Clear
3:09 AM - - N/A% - - North - - N/A   Unknown
3:54 AM 55.9 °F 46.9 °F 72% 29.88 in 7.0 mi West 10.4 mph 18.4 mph N/A   Clear
4:54 AM 55.0 °F 46.0 °F 72% 29.88 in 8.0 mi West 12.7 mph - N/A   Clear
5:15 AM - - N/A% - - North - - N/A   Unknown
5:54 AM 54.0 °F 43.0 °F 66% 29.89 in 7.0 mi West 15.0 mph 21.9 mph N/A   Scattered Clouds
6:54 AM 55.0 °F 43.0 °F 64% 29.91 in 7.0 mi WNW 9.2 mph - N/A   Scattered Clouds
7:54 AM 57.0 °F 46.0 °F 67% 29.92 in 7.0 mi NNW 6.9 mph 17.3 mph N/A   Scattered Clouds
8:54 AM 62.8 °F 45.0 °F 52% 29.93 in 7.0 mi NNW 4.6 mph - N/A   Scattered Clouds
9:54 AM - - N/A% 29.94 in 7.0 mi West 13.8 mph 25.3 mph 0.00 in   Scattered Clouds
10:54 AM - - N/A% 29.94 in 7.0 mi West 18.4 mph 25.3 mph N/A   Scattered Clouds
11:54 AM 64.9 °F 48.0 °F 54% 29.92 in 7.0 mi West 23.0 mph 31.1 mph N/A   Partly Cloudy
12:54 PM - - N/A% 29.90 in 7.0 mi WSW 16.1 mph 23.0 mph N/A   Mostly Cloudy
1:54 PM 61.7 °F 48.0 °F 61% 29.87 in 7.0 mi West 24.2 mph 35.7 mph N/A   Scattered Clouds
2:54 PM 62.1 °F 46.9 °F 58% 29.87 in 7.0 mi West 19.6 mph 31.1 mph N/A   Scattered Clouds
3:54 PM 60.3 °F 46.9 °F 61% 29.87 in 7.0 mi West 23.0 mph 35.7 mph N/A   Scattered Clouds
4:54 PM 58.5 °F 44.1 °F 59% 29.88 in 7.0 mi West 21.9 mph 32.2 mph N/A   Scattered Clouds
5:54 PM 58.3 °F 44.1 °F 59% 29.89 in 7.0 mi West 24.2 mph 32.2 mph N/A   Scattered Clouds
6:54 PM 57.2 °F 44.1 °F 62% 29.91 in 7.0 mi West 21.9 mph 28.8 mph N/A   Scattered Clouds
7:54 PM 55.4 °F 44.1 °F 66% 29.92 in 7.0 mi West 17.3 mph - N/A   Scattered Clouds
8:54 PM 56.5 °F 44.1 °F 63% 29.94 in 7.0 mi WNW 12.7 mph - N/A   Scattered Clouds
9:54 PM 55.9 °F 44.1 °F 64% 29.96 in 7.0 mi NW 6.9 mph - N/A   Partly Cloudy
10:54 PM 54.5 °F 44.1 °F 68% 29.96 in 7.0 mi NW 5.8 mph - N/A   Scattered Clouds
11:54 PM - - N/A% 29.97 in 7.0 mi NNE 5.8 mph - N/A   Clear